User: anonymous   Login
Location: Unspecified
(0.0000°N, 0.0000°E)
Time: 07:52:53
(UTC+00:00)
Language:

USA 247 - Orbit

View from above orbital plane
View from above orbital plane
View from above satellite
View from above satellite

Ground track
Ground track

The orbit data is extracted from the following two-line orbital elements,

1 39462U 13072A   17087.10835741 0.00000000  00000-0  00000-0 0    02
2 39462 122.9997  13.7019 0008000 137.1146 222.8854 13.41416231    04
Epoch (UTC): 28 March 2017 02:36:02
Eccentricity: 0.0008000
inclination: 122.9997°
perigee height: 1098 km
apogee height: 1110 km
right ascension of ascending node: 13.7019°
argument of perigee: 137.1146°
revolutions per day: 13.41416231
mean anomaly at epoch: 222.8854°
orbit number at epoch: 0

The dashed part of the orbit path shows where the satellite is in the earth's shadow,  

DLR